Regional Weather Roundup
Issued by NWS Cleveland, OH

Home | Current Version | Previous Version | Graphics & Text | Print | Product List | Glossary On
Versions: 1 2 3 4 5 6 7 8 9 10 11 12 13 14 15 16 17 18 19 20 21 22 23 24 25 26 27 28 29 30 31 32 33 34 35 36 37 38 39 40 41 42 43 44 45 46 47 48 49 50
000
ASUS41 KCLE 211512
RWRCLE
OHIO REGIONAL WEATHER ROUNDUP
NATIONAL WEATHER SERVICE WILMINGTON, OH
1000 AM EST TUE NOV 21 2017

NOTE: "FAIR" INDICATES FEW OR NO CLOUDS BELOW 12,000 FEET WITH NO
SIGNIFICANT WEATHER AND/OR OBSTRUCTIONS TO VISIBILITY.

OHZ001>008-015>018-024>027-034-035-043-044-211600-
   NORTHWEST OHIO

CITY           SKY/WX    TMP DP  RH WIND       PRES   REMARKS
DEFIANCE       FAIR      44  29  55 SW16G25   29.79S
FINDLAY        FAIR      45  28  51 SW24      29.82S
TOLEDO EXPRESS FAIR      46  30  53 SW16G25   29.76F
TOLEDO EXEC    FAIR      44  30  57 SW16G29   29.78F
LIMA           FAIR      42  29  59 SW17G25   29.84S
$$

OHZ009>014-019>023-028>033-038-089-211600-
   NORTHEAST OHIO

CITY           SKY/WX    TMP DP  RH WIND       PRES   REMARKS
CLE-HOPKINS    PTSUNNY   47  26  44 S16G29    29.85F
CLE-LAKEFRONT  FAIR      46  24  42 S20G29    29.82S
CUY CO. ARPT   PTSUNNY   46  27  46 S17G23    29.82S
LORAIN-ELYRIA  FAIR      46  25  43 SW22G31   29.82F
ASHTABULA      FAIR      45  23  42 S17G30    29.83S
AKRON-CANTON   PTSUNNY   45  25  45 SW23G36   29.88S
WOOSTER        FAIR      41  26  55 SW15      29.88S
MANSFIELD      FAIR      45  27  49 SW25G31   29.85F
YOUNGSTOWN     PTSUNNY   46  23  40 SW20G32   29.87S
$$

OHZ042-051>053-060>062-070>072-077>081-211600-
  SOUTHWEST OHIO

CITY           SKY/WX    TMP DP  RH WIND       PRES   REMARKS
CINC-COVINGTON PTSUNNY   44  30  57 SW14      29.96S
CINC-LUNKEN    PTSUNNY   45  31  58 SW15      29.98F
HAMILTON       FAIR      45  29  53 SW12G21   29.96S
DAYTON         PTSUNNY   43  29  57 S18G26    29.91S
WRIGHT-PAT AFB PTSUNNY   43  26  51 S17       29.91S
DAYTON GENERAL FAIR      43  27  53 SW16      29.92F
WILMINGTON     FAIR      43  31  62 S21       29.95S
$$

OHZ036-037-039>041-045>050-054>059-063>069-073>076-082>088-211600-
  CENTRAL AND SOUTHEAST OHIO

CITY           SKY/WX    TMP DP  RH WIND       PRES   REMARKS
COLUMBUS       CLOUDY    45  29  53 S15G26    29.95S
OSU AIRPORT    FAIR      44  29  55 S18G30    29.92S
BOLTON FIELD   SUNNY     45  28  53 SW22G28   29.95S
RICKENBACK AFB FAIR      45  29  54 SW22G28   29.95F
NEWARK         FAIR      46  28  49 S14G21    29.94F
MARION         FAIR      41  28  60 S17G26    29.88S
LANCASTER      FAIR      49  30  48 SW16G26   29.96S
ZANESVILLE     FAIR      46  28  49 SW16G24   29.97S
NEW PHILLY     FAIR      47  26  44 S9        29.94F
$$



USA.gov is the U.S. government's official web portal to all federal, state and local government web resources and services.